Location: Vancouver
(49.2500°N, 123.1330°W)
Time: 03:48:23
(UTC-07:00)

A-11 Canister half - Visible Passes

Search period start: 25 April 2018 00:00
Search period end: 05 May 2018 00:00
Orbit: 1525 x 1684 km, 47.3° (Epoch: 24 April)

Date Brightness Start Highest point End Pass type
(mag) Time Alt. Az. Time Alt. Az. Time Alt. Az.
25 Apr 9.2 00:31:50 47° S 00:33:18 50° SSE 00:42:55 10° ENE visible
25 Apr 9.0 02:29:59 19° WSW 02:37:53 78° S 02:48:04 10° E visible
25 Apr 9.1 04:32:50 10° W 04:42:56 74° SSW 04:53:03 10° ESE visible
25 Apr 10.3 22:11:14 15° ESE 22:11:14 15° ESE 22:14:22 10° E visible
26 Apr 9.2 00:09:18 41° S 00:11:43 48° SE 00:21:15 10° ENE visible
26 Apr 9.0 02:07:21 14° WSW 02:16:15 78° S 02:26:25 10° E visible
26 Apr 9.1 04:11:13 10° W 04:21:19 75° SSW 04:31:26 10° ESE visible
26 Apr 10.1 21:41:47 10° SSE 21:47:05 16° SE 21:52:27 10° E visible
26 Apr 9.2 23:40:55 10° SW 23:50:08 46° SE 23:59:35 10° ENE visible
27 Apr 9.0 01:44:37 10° WSW 01:54:36 77° SSE 02:04:47 10° E visible
27 Apr 9.1 03:49:35 10° W 03:59:41 76° SSW 04:09:49 10° ESE visible
27 Apr 10.2 21:20:43 10° SSE 21:25:35 15° ESE 21:30:30 10° E visible
27 Apr 9.3 23:19:26 10° SSW 23:28:33 45° SE 23:37:55 10° ENE visible
28 Apr 9.0 01:23:00 10° WSW 01:32:58 76° SSE 01:43:08 10° E visible
28 Apr 9.1 03:27:57 10° W 03:38:02 77° SSW 03:48:12 10° ESE visible
28 Apr 10.3 20:59:44 10° SSE 21:04:05 14° ESE 21:08:28 10° E visible
28 Apr 9.3 22:57:58 10° SSW 23:06:59 43° SE 23:16:15 10° ENE visible
29 Apr 9.0 01:01:25 10° WSW 01:11:20 75° SSE 01:21:29 10° E visible
29 Apr 9.0 03:06:20 10° W 03:16:24 77° S 03:26:34 10° ESE visible
29 Apr 9.4 05:11:26 10° WNW 05:20:57 48° SW 05:30:27 10° SE visible
29 Apr 9.3 22:36:30 10° SSW 22:45:25 42° SE 22:54:35 10° ENE visible
30 Apr 9.0 00:39:49 10° WSW 00:49:43 74° SSE 00:59:50 10° E visible
30 Apr 9.0 02:44:42 10° W 02:54:46 78° S 03:04:56 10° ESE visible
30 Apr 9.3 04:49:47 10° WNW 04:59:21 49° SSW 05:08:55 10° SE visible
30 Apr 9.4 22:15:02 10° SSW 22:23:51 40° SE 22:32:54 10° ENE visible
01 May 9.0 00:18:14 10° WSW 00:28:05 73° SSE 00:38:12 10° E visible
01 May 9.0 02:23:04 10° W 02:33:07 79° S 02:43:18 10° ESE visible
01 May 9.3 04:28:08 10° WNW 04:37:45 51° SSW 04:47:23 10° SE visible
01 May 9.4 21:53:36 10° SSW 22:02:17 38° SE 22:11:14 10° ENE visible
01 May 9.0 23:56:39 10° WSW 00:06:28 72° SSE 00:16:32 10° E visible
02 May 9.0 02:01:28 10° W 02:11:29 79° S 02:21:40 10° ESE visible
02 May 9.2 04:06:30 10° WNW 04:16:10 53° SSW 04:25:51 10° SE visible
02 May 9.5 21:32:10 10° SSW 21:40:44 37° SE 21:49:33 10° ENE visible
02 May 9.0 23:35:04 10° WSW 23:44:50 71° SSE 23:54:54 10° E visible
03 May 9.0 01:39:50 10° W 01:49:51 80° S 02:00:03 10° ESE visible
03 May 9.2 03:44:52 10° WNW 03:54:34 54° SSW 04:04:18 10° SE visible
03 May 9.5 21:10:45 10° SSW 21:19:11 35° SE 21:27:51 10° ENE visible
03 May 9.0 23:13:30 10° WSW 23:23:13 69° SSE 23:33:15 10° E visible
04 May 9.0 01:18:13 10° W 01:28:12 80° S 01:38:23 10° E visible
04 May 9.2 03:23:14 10° WNW 03:32:57 56° SSW 03:42:45 10° SE visible
04 May 9.0 22:51:56 10° WSW 23:01:36 68° SSE 23:11:35 10° E visible
